[[{"header":{"parameterUnit":"m.s-1","parameterCategory":1,"la1":30.2991,"la2":30.254,"lo1":-89.0895,"lo2":-89.0444,"dy":0.0017,"dx":0.0017,"nx":28,"ny":28,"refTime":"2023-11-17T09:00:00:Z","depth":0,"parameterNumber":2,"parameterNumberName":"U-component_of_WINDS"},"data":[0,0,0,0,0,0,0,0,0,0,0,0,0,0,0,0,0,0,0,0,0,0,0,0,0,0,0,0,0,0,0,0,0,0,0,0,0,0,0,0,0,0,0,0,0,0,0,0,0,0,0,0,0,0,0,0,0,0,-1.3242,-1.3243,0,-1.3296,-1.3297,-1.3297,-1.3234,-1.3232,-1.3229,-1.3227,-1.3283,-1.3286,-1.329,0,0,0,0,0,0,0,0,0,0,0,0,0,-1.3084,-1.3087,-1.3242,-1.3243,-1.3243,-1.3296,-1.3297,-1.3297,-1.3235,-1.3232,-1.3229,-1.3226,-1.3281,-1.3286,-1.329,0,0,0,0,0,0,0,0,0,0,0,0,0,-1.3147,-1.3088,-1.3242,-1.3218,-1.3217,-1.3296,-1.3297,-1.3297,-1.3235,-1.3232,-1.3228,-1.3225,-1.328,-1.3285,-1.3291,-1.3395,0,0,-1.3308,-1.331,0,0,0,0,0,0,0,0,-1.3143,-1.3153,-1.3221,-1.322,-1.3219,-1.3255,-1.3261,-1.333,-1.3236,-1.3228,-1.3227,-1.3223,-1.3276,-1.3282,-1.33,-1.3398,-1.34,-1.3308,-1.3311,-1.3314,-1.3315,0,0,0,0,0,0,0,-1.3139,-1.315,-1.3263,-1.3222,-1.3221,-1.3205,-1.321,-1.3274,-1.3271,-1.3229,-1.3224,-1.3231,-1.3275,-1.3295,-1.33,-1.3401,-1.3308,-1.3313,-1.3316,-1.3318,-1.3587,-1.3591,0,0,0,0,0,0,-1.3138,-1.3147,-1.3262,-1.3265,-1.3172,-1.3211,-1.3216,-1.3247,-1.3271,-1.3271,-1.3234,-1.3228,-1.3287,-1.3294,-1.3302,-1.3426,-1.3314,-1.3319,-1.3322,-1.3583,-1.3588,-1.3592,0,0,0,0,0,0,-1.3134,-1.3148,-1.3259,-1.3205,-1.3218,-1.3217,-1.3252,-1.325,-1.3269,-1.3275,-1.3274,-1.3255,-1.3284,-1.3294,-1.3372,-1.3427,-1.3321,-1.3326,-1.3579,-1.3585,-1.359,-1.3675,0,0,0,0,0,0,-1.313,-1.3148,-1.3188,-1.3206,-1.3221,-1.333,-1.3255,-1.3253,-1.3279,-1.3271,-1.3294,-1.3294,-1.3282,-1.3365,-1.3378,-1.3433,-1.3331,-1.3574,-1.3581,-1.3588,-1.3668,-1.3683,-1.3697,0,0,0,0,0,-1.3125,-1.321,-1.319,-1.3204,-1.3271,-1.3333,-1.3341,-1.3326,-1.3284,-1.3324,-1.3327,-1.3294,-1.3419,-1.3373,-1.3388,-1.3445,-1.357,-1.3579,-1.3588,-1.3661,-1.368,-1.3696,0,0,0,0,0,0,-1.3199,-1.3212,-1.319,-1.3284,-1.3308,-1.3322,-1.3373,-1.3346,-1.3383,-1.3374,-1.3353,-1.3359,-1.3442,-1.3451,-1.34,-1.3547,-1.3488,-1.35,-1.3539,-1.3557,-1.3571,-1.3568,-1.3335,0,0,0,0,0,-1.3226,-1.3275,-1.3284,-1.3365,-1.3378,-1.3374,-1.34,-1.3385,-1.3409,-1.3419,-1.3428,-1.3453,-1.3497,-1.3527,-1.3568,-1.3668,-1.3672,-1.3714,-1.3729,-1.3741,-1.3752,-1.3805,-1.3824,-1.362,-1.362,-1.362,0,0,-1.3283,-1.3296,-1.3328,-1.3381,-1.3397,-1.3449,-1.3383,-1.344,-1.3478,-1.3428,-1.3502,-1.351,-1.3535,-1.3624,-1.3664,-1.3634,-1.3809,-1.3752,-1.3761,-1.3766,-1.3816,-1.3835,-1.3852,-1.3626,-1.3625,-1.3624,0,0,-1.3412,-1.3427,-1.3497,-1.3515,-1.3541,-1.3537,-1.3553,-1.3571,-1.3574,-1.3648,-1.3612,-1.3656,-1.3733,-1.3753,-1.3773,-1.3909,-1.3879,-1.3923,-1.3999,-1.4051,-1.4067,-1.4081,-1.413,-1.4148,-1.3933,-1.3933,-1.3934,0,-1.348,-1.3556,-1.3536,-1.3596,-1.362,-1.3576,-1.3647,-1.3665,-1.3703,-1.3721,-1.3686,-1.3782,-1.3796,-1.3889,-1.3922,-1.394,-1.3958,-1.3921,-1.4066,-1.408,-1.4093,-1.4139,-1.4158,-1.3939,-1.3938,-1.3937,-1.3937,0,-1.3638,-1.3691,-1.3744,-1.3782,-1.3811,-1.3876,-1.3866,-1.3898,-1.3881,-1.388,-1.3955,-1.397,-1.4014,-1.4034,-1.4018,-1.4125,-1.4106,-1.407,-1.401,-1.4118,-1.4161,-1.4179,-1.3946,-1.3944,-1.3943,-1.3941,0,0,-1.3818,-1.3843,-1.3863,-1.3879,-1.3904,-1.3944,-1.4006,-1.4048,-1.4077,-1.4104,-1.4155,-1.4221,-1.4187,-1.421,-1.4195,-1.424,-1.4347,-1.4198,-1.4198,-1.4226,-1.4466,-1.4494,-1.4515,-1.4327,-1.433,-1.4332,-1.4464,0,-1.3949,-1.4057,-1.404,-1.4145,-1.4193,-1.4152,-1.4206,-1.4226,-1.4227,-1.4268,-1.4268,-1.4315,-1.4266,-1.428,-1.4322,-1.4325,-1.4395,-1.4315,-1.4375,-1.4377,-1.4371,-1.4537,-1.4568,-1.4691,-1.448,-1.4483,-1.4485,0,-1.4117,-1.415,-1.4259,-1.4275,-1.4295,-1.4344,-1.4381,-1.442,-1.4442,-1.4439,-1.4464,-1.4441,-1.4502,-1.444,-1.4524,-1.447,-1.4493,-1.4497,-1.4502,-1.4508,-1.4439,-1.4549,-1.473,-1.4749,-1.4512,-1.4509,-1.4508,0,-1.4238,-1.431,-1.4384,-1.4399,-1.442,-1.4455,-1.4465,-1.4484,-1.451,-1.4542,-1.4558,-1.4597,-1.4618,-1.4648,-1.4635,-1.4591,-1.4722,-1.4659,-1.4722,-1.4722,-1.4753,-1.4751,-1.4941,-1.4766,-1.4766,-1.4765,-1.4765,0,-1.4387,-1.4456,-1.4439,-1.4485,-1.4561,-1.454,-1.4615,-1.462,-1.4636,-1.4682,-1.4648,-1.4691,-1.4671,-1.4713,-1.4703,-1.4775,-1.4784,-1.4784,-1.478,-1.4788,-1.4788,-1.4804,-1.4795,-1.477,-1.4769,-1.4768,-1.4767,0,-1.4536,-1.4528,-1.4606,-1.4619,-1.4623,-1.4679,-1.4689,-1.4732,-1.4728,-1.4787,-1.4799,-1.4795,-1.4843,-1.4832,-1.4884,-1.4877,-1.4967,-1.4953,-1.496,-1.4957,-1.5021,-1.5016,-1.5229,-1.5256,-1.5062,-1.5064,-1.5065,0,-1.4632,-1.4684,-1.4702,-1.473,-1.4743,-1.4789,-1.4815,-1.4796,-1.4825,-1.4853,-1.4892,-1.4937,-1.4971,-1.5049,-1.505,-1.509,-1.5077,-1.5148,-1.5083,-1.5088,-1.5079,-1.5076,-1.5081,-1.5162,-1.5165,-1.5166,-1.5168,0,-1.4804,-1.4797,-1.4836,-1.4874,-1.4907,-1.4935,-1.4961,-1.4986,-1.4968,-1.5002,-1.505,-1.5077,-1.513,-1.5175,-1.5211,-1.522,-1.5192,-1.5188,-1.5205,-1.5214,-1.5216,-1.5216,-1.4997,-1.5184,-1.5182,-1.5181,-1.518,-1.518,-1.4931,-1.4975,-1.4994,-1.5038,-1.5055,-1.508,-1.512,-1.5122,-1.5162,-1.5204,-1.5189,-1.5244,-1.5263,-1.5309,-1.5323,-1.5365,-1.5338,-1.5363,-1.5369,-1.5376,-1.5384,-1.5208,-1.5372,-1.5371,-1.5371,-1.537,-1.537,0,-1.5101,-1.5111,-1.5152,-1.5189,-1.5224,-1.5192,-1.5219,-1.525,-1.5299,-1.5319,-1.5354,-1.5409,-1.5451,-1.5455,-1.5495,-1.5528,-1.5516,-1.5539,-1.5538,-1.554,-1.5405,-1.5387,-1.5549,-1.5549,-1.5549,-1.5549,-1.5549,-1.5549,-1.5195,-1.5267,-1.5262,-1.5343,-1.5352,-1.5406,-1.5423,-1.5445,-1.5461,-1.5524,-1.5559,-1.5561,-1.5575,-1.5615,-1.5653,-1.5652,-1.5669,-1.5698,-1.5693,-1.5567,-1.555,-1.5533,-1.5516,-1.5702,-1.5702,-1.5824,-1.5825,-1.5826]},{"header":{"parameterUnit":"m.s-1","parameterCategory":1,"la1":30.2991,"la2":30.254,"lo1":-89.0895,"lo2":-89.0444,"dy":0.0017,"dx":0.0017,"nx":28,"ny":28,"refTime":"2023-11-17T09:00:00:Z","depth":0,"parameterNumber":3,"parameterNumberName":"V-component_of_WINDS"},"data":[0,0,0,0,0,0,0,0,0,0,0,0,0,0,0,0,0,0,0,0,0,0,0,0,0,0,0,0,0,0,0,0,0,0,0,0,0,0,0,0,0,0,0,0,0,0,0,0,0,0,0,0,0,0,0,0,0,0,-4.0935,-4.0936,0,-4.1011,-4.1012,-4.1013,-4.0956,-4.0954,-4.0951,-4.0949,-4.1022,-4.1026,-4.103,0,0,0,0,0,0,0,0,0,0,0,0,0,-4.0736,-4.074,-4.0935,-4.0936,-4.0937,-4.1011,-4.1012,-4.1013,-4.0957,-4.0954,-4.0951,-4.0948,-4.1021,-4.1026,-4.1031,0,0,0,0,0,0,0,0,0,0,0,0,0,-4.0818,-4.0742,-4.0935,-4.0918,-4.0917,-4.101,-4.1012,-4.1013,-4.0957,-4.0954,-4.095,-4.0947,-4.1019,-4.1025,-4.1032,-4.1144,0,0,-4.1051,-4.1054,0,0,0,0,0,0,0,0,-4.0814,-4.0826,-4.092,-4.0919,-4.0919,-4.0971,-4.0968,-4.1057,-4.0958,-4.0942,-4.0949,-4.0945,-4.1008,-4.1015,-4.1037,-4.1147,-4.115,-4.1051,-4.1055,-4.1058,-4.106,0,0,0,0,0,0,0,-4.0808,-4.0822,-4.0965,-4.0921,-4.0921,-4.0905,-4.0912,-4.0985,-4.0994,-4.0943,-4.0939,-4.0949,-4.1007,-4.1031,-4.1038,-4.1152,-4.1051,-4.1057,-4.1061,-4.1063,-4.1356,-4.136,0,0,0,0,0,0,-4.0805,-4.0818,-4.0962,-4.0967,-4.0856,-4.0911,-4.092,-4.0958,-4.0993,-4.0995,-4.0952,-4.0946,-4.1022,-4.1031,-4.104,-4.1173,-4.1058,-4.1064,-4.1068,-4.1352,-4.1357,-4.1361,0,0,0,0,0,0,-4.0801,-4.0818,-4.0959,-4.0892,-4.0908,-4.0919,-4.0961,-4.0961,-4.0985,-4.1,-4.1001,-4.0976,-4.1019,-4.1032,-4.1119,-4.1175,-4.1067,-4.1072,-4.1347,-4.1354,-4.1359,-4.1441,0,0,0,0,0,0,-4.0795,-4.0817,-4.0862,-4.0893,-4.0912,-4.1038,-4.0965,-4.0965,-4.0997,-4.099,-4.1023,-4.1024,-4.1017,-4.1109,-4.1125,-4.1182,-4.1077,-4.1342,-4.135,-4.1357,-4.1433,-4.1449,-4.1462,0,0,0,0,0,-4.0789,-4.0881,-4.0864,-4.0882,-4.0968,-4.1042,-4.1052,-4.1044,-4.1002,-4.1045,-4.1055,-4.1023,-4.1167,-4.1119,-4.1136,-4.1195,-4.1339,-4.1348,-4.1357,-4.1427,-4.1446,-4.1462,0,0,0,0,0,0,-4.0854,-4.0885,-4.0866,-4.0972,-4.1005,-4.1032,-4.1087,-4.1065,-4.1109,-4.11,-4.1086,-4.1094,-4.1185,-4.1199,-4.1145,-4.1305,-4.1246,-4.1258,-4.1293,-4.1311,-4.1326,-4.132,-4.1083,0,0,0,0,0,-4.0882,-4.0941,-4.0963,-4.1054,-4.1072,-4.1077,-4.1108,-4.1099,-4.1131,-4.1145,-4.1161,-4.1192,-4.1244,-4.1278,-4.1327,-4.1435,-4.144,-4.1484,-4.1498,-4.151,-4.1521,-4.1578,-4.1597,-4.1391,-4.139,-4.139,0,0,-4.0938,-4.0961,-4.0999,-4.1068,-4.1092,-4.1152,-4.1089,-4.1155,-4.1198,-4.1154,-4.1237,-4.125,-4.1284,-4.1382,-4.1425,-4.1396,-4.158,-4.1522,-4.1531,-4.1536,-4.1589,-4.1609,-4.1626,-4.1397,-4.1396,-4.1395,0,0,-4.107,-4.1095,-4.1173,-4.1199,-4.1237,-4.1239,-4.1258,-4.1289,-4.1296,-4.1379,-4.1347,-4.1397,-4.1488,-4.1513,-4.1538,-4.1678,-4.1651,-4.1694,-4.1771,-4.1826,-4.1842,-4.1856,-4.1905,-4.1923,-4.1705,-4.1706,-4.1706,0,-4.1135,-4.1225,-4.1215,-4.1284,-4.1314,-4.1278,-4.1356,-4.1381,-4.1432,-4.1453,-4.1419,-4.1531,-4.1551,-4.1654,-4.1688,-4.1709,-4.1729,-4.1691,-4.1841,-4.1855,-4.1868,-4.1915,-4.1933,-4.1711,-4.171,-4.171,-4.1709,0,-4.1302,-4.1365,-4.1423,-4.1475,-4.1511,-4.1584,-4.1583,-4.1621,-4.1608,-4.1614,-4.1698,-4.1721,-4.1774,-4.1797,-4.1785,-4.1897,-4.1878,-4.1843,-4.1783,-4.1893,-4.1937,-4.1954,-4.1718,-4.1716,-4.1715,-4.1713,0,0,-4.1479,-4.1524,-4.1546,-4.1568,-4.1607,-4.1654,-4.1724,-4.1776,-4.1808,-4.1844,-4.1902,-4.1978,-4.1946,-4.1974,-4.1964,-4.2012,-4.2121,-4.1971,-4.1972,-4.1997,-4.2245,-4.227,-4.2291,-4.2103,-4.2106,-4.2109,-4.2241,0,-4.1613,-4.1737,-4.173,-4.1845,-4.1902,-4.1868,-4.1929,-4.1958,-4.1964,-4.2012,-4.2018,-4.2073,-4.2027,-4.2043,-4.209,-4.2098,-4.217,-4.2088,-4.2154,-4.2156,-4.2146,-4.2314,-4.2342,-4.2466,-4.2258,-4.2261,-4.2263,0,-4.1786,-4.1829,-4.1951,-4.198,-4.2004,-4.2059,-4.2105,-4.2152,-4.2183,-4.2184,-4.2215,-4.2197,-4.2265,-4.2204,-4.2297,-4.2241,-4.2267,-4.2275,-4.228,-4.2285,-4.2216,-4.2323,-4.2505,-4.2524,-4.229,-4.2288,-4.2286,0,-4.1902,-4.199,-4.2074,-4.2095,-4.2131,-4.217,-4.2186,-4.2215,-4.2246,-4.2286,-4.2306,-4.2353,-4.2378,-4.2414,-4.2408,-4.2364,-4.2502,-4.244,-4.2504,-4.2504,-4.2534,-4.2532,-4.2722,-4.2552,-4.2552,-4.2552,-4.2551,0,-4.2052,-4.2127,-4.2127,-4.2178,-4.2261,-4.2251,-4.2333,-4.2344,-4.2369,-4.2421,-4.2394,-4.2443,-4.2432,-4.2479,-4.2475,-4.2552,-4.2563,-4.2565,-4.2563,-4.2567,-4.2567,-4.2584,-4.2575,-4.2557,-4.2555,-4.2555,-4.2554,0,-4.2195,-4.2198,-4.2287,-4.2314,-4.2323,-4.2382,-4.2404,-4.2452,-4.2456,-4.2522,-4.2536,-4.2542,-4.2597,-4.2595,-4.2656,-4.2653,-4.2747,-4.2735,-4.2738,-4.2735,-4.2798,-4.2792,-4.3005,-4.3032,-4.2845,-4.2847,-4.2848,0,-4.2291,-4.2348,-4.2382,-4.2415,-4.2434,-4.2489,-4.2521,-4.2512,-4.2546,-4.2586,-4.2628,-4.2681,-4.2722,-4.2811,-4.282,-4.2866,-4.2854,-4.2926,-4.2861,-4.2864,-4.2854,-4.2851,-4.2856,-4.2939,-4.2941,-4.2942,-4.2944,0,-4.246,-4.2458,-4.2506,-4.2555,-4.2594,-4.2632,-4.2666,-4.2694,-4.2689,-4.2728,-4.2785,-4.2817,-4.288,-4.2932,-4.2976,-4.2991,-4.2966,-4.2964,-4.2981,-4.2986,-4.2985,-4.2985,-4.2771,-4.2959,-4.2958,-4.2957,-4.2956,-4.2955,-4.2581,-4.263,-4.2661,-4.2715,-4.274,-4.2773,-4.2819,-4.2829,-4.2876,-4.2928,-4.2919,-4.2982,-4.301,-4.3067,-4.3086,-4.3134,-4.3108,-4.3133,-4.3139,-4.3145,-4.3152,-4.2978,-4.3142,-4.3141,-4.3141,-4.314,-4.314,0,-4.2748,-4.2766,-4.2816,-4.2865,-4.2907,-4.2882,-4.2918,-4.2954,-4.301,-4.3039,-4.3081,-4.3145,-4.3195,-4.3207,-4.3254,-4.329,-4.328,-4.3303,-4.33,-4.3303,-4.3172,-4.3153,-4.331,-4.331,-4.331,-4.331,-4.331,-4.331,-4.2839,-4.2921,-4.2923,-4.3015,-4.3032,-4.3095,-4.3117,-4.3146,-4.3169,-4.3242,-4.3284,-4.3292,-4.3314,-4.3362,-4.3406,-4.3408,-4.3427,-4.3454,-4.3452,-4.3329,-4.3312,-4.3296,-4.3277,-4.3458,-4.3459,-4.3578,-4.3579,-4.358]}]]